EW5678 Weather Reports


Display with metric or nautical units.
time (UTC)temp
F
wind
direction
speed
MPH
gust
MPH
rain 1hr
in
rain 24hr
in
rain mn
in
humidity
%
barometer
mb
20260906125747 65 48 4.0 10.0 0.00 0.03 0.03 85 1004.4
20260906124847 66 30 2.0 6.0 0.00 0.03 0.03 82 1004.4
20260906123947 65 48 3.0 6.0 0.00 0.03 0.03 83 1004.4
20260906123048 65 58 3.0 7.0 0.00 0.03 0.03 83 1004.3
20260906122147 66 42 5.0 10.0 0.00 0.03 0.03 84 1004.1
20260906121248 66 38 5.0 8.0 0.00 0.03 0.03 84 1004.1
20260906120348 66 43 4.0 7.0 0.00 0.03 0.03 85 1004.0
20260906115448 66 46 4.0 8.0 0.00 0.03 0.03 84 1003.8
20260906114547 65 42 5.0 8.0 0.00 0.03 0.03 84 1003.7
20260906113647 65 30 6.0 9.0 0.00 0.03 0.03 85 1003.6
20260906112747 64 32 5.0 12.0 0.00 0.03 0.03 86 1003.5
20260906111847 64 16 5.0 9.0 0.00 0.03 0.03 86 1003.5
20260906110047 63 311 2.0 6.0 0.00 0.03 0.03 88 1003.3
20260906104247 63 68 3.0 6.0 0.00 0.03 0.03 86 1002.9
20260906103347 64 90 3.0 5.0 0.00 0.03 0.03 83 1002.8
20260906102448 64 81 3.0 7.0 0.00 0.03 0.03 85 1002.7
20260906101548 64 65 3.0 5.0 0.00 0.03 0.03 85 1002.7
20260906095747 64 65 3.0 8.0 0.00 0.03 0.03 82 1002.6
20260906094848 65 246 2.0 5.0 0.00 0.03 0.03 83 1002.6
20260906093947 65 255 3.0 7.0 0.00 0.03 0.03 83 1002.5
20260906093048 64 46 4.0 7.0 0.00 0.03 0.03 81 1002.4
20260906091247 64 90 6.0 8.0 0.00 0.03 0.03 77 1002.2
20260906090347 64 99 5.0 8.0 0.00 0.03 0.03 77 1002.0
20260906085447 64 104 5.0 8.0 0.00 0.03 0.03 77 1001.9
20260906084547 63 112 5.0 8.0 0.00 0.03 0.03 78 1002.0
20260906082747 63 94 6.0 10.0 0.00 0.03 0.03 79 1001.9
20260906080947 62 90 6.0 10.0 0.00 0.03 0.03 82 1001.9
20260906080047 62 92 6.0 11.0 0.00 0.03 0.03 84 1001.9
20260906075148 62 90 6.0 9.0 0.00 0.03 0.03 84 1002.0
20260906073347 62 90 5.0 8.0 0.00 0.03 0.03 87 1001.8
20260906072447 62 93 6.0 12.0 0.00 0.03 0.03 86 1001.7
20260906071547 62 92 7.0 12.0 0.00 0.03 0.03 86 1001.7
20260906070648 62 91 6.0 12.0 0.00 0.03 0.03 85 1001.7
20260906065747 63 93 7.0 13.0 0.00 0.03 0.03 85 1001.7
20260906064847 62 97 7.0 14.0 0.00 0.03 0.03 86 1001.7
20260906063947 62 91 6.0 13.0 0.00 0.03 0.03 90 1001.8
20260906062147 63 73 4.0 10.0 0.00 0.03 0.03 90 1002.1
20260906061247 63 84 4.0 9.0 0.00 0.03 0.03 85 1002.1
20260906060347 63 97 6.0 10.0 0.00 0.03 0.03 83 1002.2
20260906055447 64 101 6.0 14.0 0.00 0.03 0.03 83 1002.2
20260906054547 64 92 5.0 12.0 0.00 0.03 0.03 84 1002.1
20260906053647 64 99 4.0 11.0 0.00 0.03 0.03 86 1002.1
20260906052747 65 121 5.0 10.0 0.00 0.03 0.03 86 1002.0
20260906051847 65 130 5.0 11.0 0.00 0.03 0.03 86 1002.1
20260906050947 65 132 6.0 10.0 0.00 0.03 0.03 89 1002.2
20260906045147 65 132 7.0 11.0 0.01 0.03 0.03 89 1002.2
20260906044247 65 135 7.0 12.0 0.03 0.03 0.03 90 1002.2
20260906043347 65 131 4.0 10.0 0.03 0.03 0.03 91 1002.2
20260906042448 65 131 7.0 12.0 0.03 0.03 0.03 91 1002.2
20260906041547 65 130 6.0 10.0 0.03 0.03 0.03 91 1002.2
20260906040647 64 120 5.0 11.0 0.03 0.03 0.03 92 1002.2
20260906035747 65 130 7.0 12.0 0.03 0.03 0.03 92 1002.0
20260906034847 65 117 4.0 11.0 0.00 0.00 0.01 91 1002.0
20260906033947 65 107 5.0 11.0 0.00 0.00 0.00 91 1002.1
20260906033048 65 124 7.0 12.0 0.00 0.00 0.00 90 1001.9
20260906032147 65 125 8.0 13.0 0.00 0.00 0.00 90 1001.7
20260906030347 65 106 6.0 13.0 0.00 0.00 0.00 89 1001.6
20260906025447 66 120 5.0 12.0 0.00 0.00 0.00 88 1001.7
20260906023648 66 127 7.0 13.0 0.00 0.00 0.00 89 1001.6
20260906022747 66 126 7.0 13.0 0.00 0.00 0.00 89 1001.5
20260906021847 66 121 5.0 11.0 0.00 0.00 0.00 89 1001.5
20260906020947 67 123 5.0 11.0 0.00 0.00 0.00 89 1001.5
20260906020048 67 125 6.0 12.0 0.00 0.00 0.00 89 1001.5
20260906014247 67 128 7.0 11.0 0.00 0.00 0.00 88 1001.4
20260906013347 67 118 6.0 12.0 0.00 0.00 0.00 88 1001.3
20260906012447 67 128 7.0 13.0 0.00 0.00 0.00 87 1001.3
20260906011548 67 126 7.0 15.0 0.00 0.00 0.00 87 1001.0
20260906010649 68 126 7.0 14.0 0.00 0.00 0.00 86 1001.1
20260906005747 68 110 6.0 14.0 0.00 0.00 0.00 85 1001.0
20260906004847 69 101 7.0 14.0 0.00 0.00 0.00 84 1001.0
20260906003947 69 79 6.0 11.0 0.00 0.00 0.00 83 1000.8
20260906003047 70 82 5.0 9.0 0.00 0.00 0.00 83 1000.6
20260906002147 70 70 6.0 10.0 0.00 0.00 0.00 82 1000.5
20260906000348 71 70 8.0 14.0 0.00 0.00 0.00 79 1000.2
20260905235448 71 84 6.0 12.0 0.00 0.00 0.00 79 1000.3
20260905234547 72 36 14.0 21.0 0.00 0.00 0.00 77 1000.3
20260905233647 72 30 15.0 18.0 0.00 0.00 0.00 74 1000.2
20260905232747 73 17 14.0 17.0 0.00 0.00 0.00 73 1000.2
20260905231847 73 11 14.0 16.0 0.00 0.00 0.00 72 1000.0
20260905230947 73 2 12.0 15.0 0.00 0.00 0.00 71 999.9
20260905230047 73 353 10.0 12.0 0.00 0.00 0.00 69 999.9
20260905225147 73 5 10.0 12.0 0.00 0.00 0.00 68 999.9
20260905224247 73 15 8.0 12.0 0.00 0.00 0.00 68 999.8
20260905223347 73 18 7.0 8.0 0.00 0.00 0.00 69 999.9
20260905222447 73 20 7.0 8.0 0.00 0.00 0.00 69 999.8
20260905221549 73 30 8.0 12.0 0.00 0.00 0.00 68 999.8
20260905220647 73 32 7.0 9.0 0.00 0.00 0.00 69 999.8
20260905215747 73 24 6.0 7.0 0.00 0.00 0.00 67 999.9
20260905214847 73 16 6.0 8.0 0.00 0.00 0.00 67 999.9
20260905213947 73 7 5.0 8.0 0.00 0.00 0.00 68 999.7
20260905213047 73 355 5.0 7.0 0.00 0.00 0.00 67 999.6
20260905212147 74 24 4.0 7.0 0.00 0.00 0.00 69 999.6
20260905211247 74 18 3.0 7.0 0.00 0.00 0.00 68 999.5
20260905210347 73 4 3.0 6.0 0.00 0.00 0.00 66 999.4
20260905203648 73 9 5.0 9.0 0.00 0.00 0.00 67 999.3
20260905202747 73 16 4.0 6.0 0.00 0.00 0.00 69 999.4
20260905201847 73 11 5.0 9.0 0.00 0.00 0.00 69 999.4
20260905200947 73 341 5.0 8.0 0.00 0.00 0.00 68 999.3
20260905195147 73 343 6.0 8.0 0.00 0.00 0.00 66 999.3
20260905194247 74 334 6.0 8.0 0.00 0.00 0.00 66 999.3
20260905193347 74 357 4.0 8.0 0.00 0.00 0.00 66 999.3
20260905192447 74 354 5.0 10.0 0.00 0.00 0.00 64 999.3
20260905190647 75 309 5.0 8.0 0.00 0.00 0.00 66 999.4
20260905185747 74 352 8.0 12.0 0.00 0.00 0.00 66 999.5
20260905184847 74 329 7.0 12.0 0.00 0.00 0.00 66 999.4
20260905183947 73 307 7.0 10.0 0.00 0.00 0.00 68 999.4
20260905183048 73 330 8.0 13.0 0.00 0.00 0.00 68 999.5
20260905182147 73 296 10.0 16.0 0.00 0.00 0.00 67 999.5
20260905180347 72 296 10.0 16.0 0.00 0.00 0.00 70 999.6
20260905175447 72 343 7.0 13.0 0.00 0.00 0.00 69 999.7
20260905174548 72 327 8.0 12.0 0.00 0.00 0.00 67 999.8
20260905171847 72 341 7.0 13.0 0.00 0.00 0.00 71 999.9
20260905170047 72 349 9.0 15.0 0.00 0.00 0.00 71 999.9
20260905165147 72 350 6.0 12.0 0.00 0.00 0.00 72 1000.0
20260905164247 71 328 8.0 15.0 0.00 0.00 0.00 73 999.9
20260905163348 71 327 8.0 17.0 0.00 0.00 0.00 72 999.9
20260905162447 71 352 6.0 14.0 0.00 0.00 0.00 73 999.8
20260905161547 71 335 7.0 13.0 0.00 0.00 0.00 75 999.8
20260905160647 71 337 8.0 13.0 0.00 0.00 0.00 75 999.9
20260905154847 71 23 10.0 18.0 0.00 0.00 0.00 77 1000.0
20260905153947 71 36 13.0 18.0 0.00 0.00 0.00 72 1000.0
20260905153047 72 12 10.0 19.0 0.00 0.00 0.00 71 999.9
20260905152147 71 9 12.0 18.0 0.00 0.00 0.00 74 999.9
20260905150347 71 37 11.0 21.0 0.00 0.00 0.00 74 999.8
20260905145447 70 38 12.0 20.0 0.00 0.00 0.00 75 999.9
20260905144547 70 20 11.0 18.0 0.00 0.00 0.00 73 1000.0
20260905143647 69 350 13.0 19.0 0.00 0.00 0.00 74 999.9
20260905141847 69 22 11.0 20.0 0.00 0.00 0.00 75 999.8
20260905140947 69 22 13.0 20.0 0.00 0.00 0.00 76 999.7
20260905140047 69 26 14.0 20.0 0.00 0.00 0.00 75 999.9
20260905135147 69 21 12.0 18.0 0.00 0.00 0.00 76 999.8
20260905133347 69 4 6.0 12.0 0.00 0.00 0.00 79 1000.0
20260905132447 68 25 10.0 15.0 0.00 0.00 0.00 79 999.9
20260905131547 69 24 10.0 15.0 0.00 0.00 0.00 75 1000.0